Home   Weather   Steinfurt   Past weeks

Flag for Germany Past Weather in Steinfurt, North Rhine-Westphalia, Germany — Yesterday and Last 2 Weeks

Now
61 °F

Cool.


Feels Like: 61 °F
Forecast: 49 / 58 °F
Wind: 3 mph from North

Location: Rheine-Bentlage

Current Time: Oct 1, 2016 at 3:53:14 PM

Latest Report: Oct 1, 2016 at 2:20 PM


Visibility: N/A

Pressure: 29.77 "Hg

Humidity: 72%

Dew Point: 52 °F

Location of SteinfurtLocation

Past Weather in Steinfurt — Graph

°F

Steinfurt Temperature Yesterday

Maximum temperature yesterday: 64 °F (at 4:20 PM)
Minimum temperature yesterday: 48 °F (at 10:20 PM)
Average temperature yesterday: 57 °F

High & Low Weather Summary for the Past Weeks

 TemperatureHumidityPressure
High79 °F (Sep 25, 3:20 PM)100% (Sep 21, 6:20 AM)30.30 "Hg (Sep 21, 6:20 AM)
Low43 °F (Sep 27, 5:20 AM)37% (Sep 25, 3:20 PM)29.77 "Hg (Oct 1, 1:20 PM)
Average59 °F75%30.09 "Hg
* Reported Sep 16 2:20 PM — Oct 1 2:20 PM, Steinfurt, Weather by CustomWeather, © 2016

Note: Actual official high and low records may vary slightly from our data, if they occured in-between our weather recording intervals... More about our weather records

Advertising

Steinfurt Weather History for the Previous 24 Hours

Scroll right to see more
 ConditionsComfort  
Time TempWeatherWind HumidityBarometerVisibility
2:20 PM
Sat, Oct 1
61 °FCool.3 mph72%29.77 "HgN/A
1:20 PM61 °FCool.6 mph68%29.77 "HgN/A
12:20 PM59 °FCool.8 mph77%29.80 "HgN/A
11:20 AM57 °FCool.7 mph77%29.80 "HgN/A
10:20 AM54 °FCool.7 mph88%29.80 "HgN/A
9:20 AM54 °FCool.2 mph88%29.83 "HgN/A
8:20 AM52 °FCool.3 mph94%29.83 "HgN/A
7:20 AM52 °FCool.6 mph88%29.83 "HgN/A
6:20 AM52 °FCool.5 mph88%29.83 "HgN/A
5:20 AM52 °FCool.5 mph88%29.83 "HgN/A
4:20 AM52 °FCool.6 mph82%29.86 "HgN/A
3:20 AM50 °FCool.5 mph88%29.86 "HgN/A
2:20 AM52 °FCool.5 mph77%29.89 "HgN/A
1:20 AM50 °FCool.1 mph82%29.89 "HgN/A
12:20 AM52 °FCool.3 mph77%29.92 "HgN/A
11:20 PM
Fri, Sep 30
48 °FCool.3 mph94%29.92 "HgN/A
10:20 PM48 °FCool.2 mph87%29.95 "HgN/A
9:20 PM50 °FCool.2 mph88%29.95 "HgN/A
8:20 PM54 °FCool.3 mph77%29.95 "HgN/A
7:20 PM57 °FCool.2 mph67%29.92 "HgN/A
6:20 PM61 °FCool.2 mph63%29.92 "HgN/A
5:20 PM59 °FCool.3 mph68%29.92 "HgN/A
4:20 PM64 °FMild.13 mph56%29.92 "HgN/A
3:20 PM63 °FMild.13 mph56%29.92 "HgN/A
Weather by CustomWeather, © 2016

See weather overviewHow to use our weather pages